Flag for U.S.A. Weather past 2 weeks in Philadelphia, Pennsylvania, U.S.A.

Now
70 °F

Passing clouds.


Feels Like: 70 °F
Forecast: 67 / 81 °F
Wind: No wind

Location: Philadelphia International Airport

Current Time: Jul 3, 2015 at 3:02:51 AM

Latest Report: Jul 3, 2015 at 1:54 AM


Visibility: 8 mi

Pressure: 29.91 "Hg

Humidity: 81%

Dew point: 64 °F

Location of PhiladelphiaLocation

Historic Weather in Philadelphia — Graph

°F

Philadelphia temperature yesterday

Maximum temperature yesterday: 77 °F (at 2:54 PM)
Minimum temperature yesterday: 67 °F (at 5:54 AM)
Average temperature yesterday: 73 °F

Past Weeks' High & Low Weather Summary

 TemperatureHumidityPressure
High94 °F (Jun 23, 2:54 PM)93% (Jun 18, 4:54 AM)30.11 "Hg (Jun 18, 4:54 AM)
Low63 °F (Jun 27, 7:54 PM)35% (Jun 22, 11:54 AM)29.63 "Hg (Jun 28, 4:54 AM)
Average76 °F67%29.92 "Hg
* Reported Jun 18 1:54 AM — Jul 3 1:54 AM, Philadelphia, Weather by CustomWeather, © 2015

Note: Actual official high and low records may vary slightly from our data, if they occured in-between our weather recording intervals... More about our weather records

Advertising

Philadelphia weather history for previous 24 hours

 ConditionsComfort  
Time TempWeatherWind HumidityBarometerVisibility
1:54 AM
Fri, Jul 3
70 °FPassing clouds.No wind81%29.91 "Hg8 mi
12:54 AM70 °FPassing clouds.No wind81%29.91 "Hg10 mi
11:54 PM
Thu, Jul 2
71 °FPartly cloudy.5 mph78%29.89 "Hg10 mi
10:54 PM72 °FPartly cloudy.3 mph76%29.90 "Hg10 mi
9:54 PM74 °FMostly cloudy.5 mph69%29.89 "Hg10 mi
8:54 PM73 °FMostly cloudy.3 mph76%29.87 "Hg9 mi
7:54 PM73 °FLight rain. Mostly cloudy.3 mph79%29.86 "Hg8 mi
6:54 PM74 °FLight rain. Mostly cloudy.3 mph71%29.88 "Hg9 mi
5:54 PM75 °FMostly cloudy.No wind66%29.87 "Hg10 mi
4:54 PM75 °FOvercast.3 mph64%29.88 "Hg10 mi
3:54 PM75 °FMostly cloudy.5 mph64%29.89 "Hg10 mi
2:54 PM77 °FMostly cloudy.6 mph62%29.89 "Hg10 mi
1:54 PM73 °FMostly cloudy.3 mph71%29.90 "Hg10 mi
12:54 PM75 °FCloudy.7 mph66%29.90 "Hg10 mi
11:54 AM73 °FMostly cloudy.8 mph69%29.91 "Hg10 mi
10:54 AM71 °FLight rain. Mostly cloudy.5 mph76%29.91 "Hg8 mi
9:54 AM72 °FLight rain. Cloudy.3 mph73%29.91 "Hg5 mi
8:54 AM73 °FMostly cloudy.3 mph66%29.91 "Hg7 mi
7:54 AM72 °FOvercast.3 mph68%29.90 "Hg7 mi
6:54 AM70 °FMore clouds than sun.3 mph73%29.90 "Hg7 mi
5:54 AM67 °FPassing clouds.No wind79%29.88 "Hg8 mi
4:54 AM70 °FPassing clouds.No wind76%29.88 "Hg10 mi
3:54 AM71 °FClear.No wind68%29.88 "Hg10 mi
Weather by CustomWeather, © 2015

See weather overviewHow to use our weather pages